This demonstration page uses our WeatherBlox Daily Observations layout. Learn more.

Left ArrowRight Arrow

31.31129, -92.44514

Hourly Observations for October 6, 2015

Temp ( °F °C ) Dew Point ( °F °C ) Humidity (%) Winds ( mph kmh ) Pressure ( in mb ) Visibility ( mi km ) Precip ( " mm )
12:53 am 00:53 Clear 62 16.7 58 14.4 86 86 WNW 3 6 30.02 1017 10 16 0.00 0.00
1:53 am 01:53 Clear 62 16.7 57 13.9 84 84 NW 5 7 30.01 1016 10 16 0.00 0.00
2:53 am 02:53 Clear 62 16.7 58 14.4 86 86 Calm 30.01 1016 9 14 0.00 0.00
3:53 am 03:53 Clear 61 16.1 59 15 93 93 NW 5 7 30.01 1016 8 13 0.00 0.00
4:53 am 04:53 Clear 62 16.7 59 15 90 90 Calm 30.02 1017 7 11 0.00 0.00
5:53 am 05:53 Clear 61 16.1 58 14.4 90 90 WNW 3 6 30.03 1017 7 11 0.00 0.00
6:53 am 06:53 Clear 59 15 57 13.9 93 93 NW 3 6 30.05 1018 7 11 0.00 0.00
7:53 am 07:53 Sunny 62 16.7 59 15 90 90 Calm 30.07 1018 7 11 0.00 0.00
8:53 am 08:53 Sunny 69 20.6 62 16.7 78 78 N 5 7 30.09 1019 7 11 0.00 0.00
9:53 am 09:53 Sunny 74 23.3 62 16.7 67 67 VRB 3 6 30.10 1019 7 11 0.00 0.00
10:53 am 10:53 Sunny 80 26.7 63 17.2 56 56 Calm 30.10 1019 8 13 0.00 0.00
11:53 am 11:53 Sunny 84 28.9 63 17.2 49 49 VRB 3 6 30.09 1019 9 14 0.00 0.00
12:53 pm 12:53 Mostly Sunny 85 29.4 62 16.7 46 46 Calm 30.06 1018 10 16 0.00 0.00
1:53 pm 13:53 Mostly Cloudy 85 29.4 62 16.7 46 46 N 6 9 30.03 1017 10 16 0.00 0.00
2:53 pm 14:53 Cloudy 86 30 62 16.7 45 45 N 7 11 30.01 1016 10 16 0.00 0.00
3:53 pm 15:53 Cloudy 86 30 62 16.7 45 45 NNE 7 11 30.00 1016 9 14 0.00 0.00
4:53 pm 16:53 Mostly Cloudy 86 30 61 16.1 43 43 NW 8 13 29.99 1016 10 16 0.00 0.00
5:53 pm 17:53 Mostly Cloudy 86 30 62 16.7 45 45 N 3 6 29.98 1015 10 16 0.00 0.00
6:53 pm 18:53 Mostly Cloudy 79 26.1 66 18.9 65 65 Calm 29.99 1016 9 14 0.00 0.00
7:53 pm 19:53 Clear 74 23.3 65 18.3 74 74 Calm 30.00 1016 10 16 0.00 0.00
8:53 pm 20:53 Clear 72 22.2 65 18.3 79 79 Calm 30.01 1016 9 14 0.00 0.00
9:53 pm 21:53 Clear 69 20.6 65 18.3 87 87 Calm 30.02 1017 9 14 0.00 0.00
10:53 pm 22:53 Clear 67 19.4 63 17.2 87 87 Calm 30.03 1017 9 14 0.00 0.00
11:53 pm 23:53 Clear 66 18.9 60 15.6 81 81 Calm 30.02 1017 8 13 0.00 0.00

Powered by AerisWeather